Weather History for Waukesha, WI

Change the Weather History Date:

Monday, December 31, 2012

  Actual Average Record
Temperature  
Mean Temperature 20 °F -  
Max Temperature 32 °F 28 °F 55 °F (1965)
Min Temperature 8 °F 13 °F -12 °F (1968)
Degree Days  
Heating Degree Days 45    
Moisture  
Dew Point 16 °F    
Average Humidity 79    
Maximum Humidity 93    
Minimum Humidity 69    
Precipitation  
Precipitation 0.00 in - - ()
Sea Level Pressure  
Sea Level Pressure 30.02 in    
Wind  
Wind Speed 12 mph (West)    
Max Wind Speed 18 mph    
Max Gust Speed 29 mph    
Visibility 10 miles    
Events      
Averages and records for this station are not official NWS values.
T = Trace of Precipitation, MM = Missing Value Source: NWS Daily Summary

Daily Weather History Graph

Daily Weather History Graph

Search for Another Location

Airport:

Trip Planner

Search our weather history database for the weather conditions in past years. The results will help you decide how hot, cold, wet, or windy it might be!

Date:

Astronomy

Dec. 31, 2012 Rise Set
Actual Time 7:24 AM CST 4:28 PM CST
Civil Twilight 6:52 AM CST 5:00 PM CST
Nautical Twilight 6:16 AM CST 5:36 PM CST
Astronomical Twilight 5:41 AM CST 6:10 PM CST
Moon 8:04 PM CST (12/31) 9:00 AM CST (12/31)
Length of Visible Light 10h 08m
Length of Day
9h 03m
Waning Gibbous, 90% of the Moon is Illuminated
Dec 31
Waning Gibbous
Jan 4
Last Quarter
Jan 11
New
Jan 18
First Quarter
Jan 26
Full

Hourly Weather History & Observations

Time (CST) Temp. Windchill Dew Point Humidity Pressure Visibility Wind Dir Wind Speed Gust Speed Precip Events Conditions
12:15 AM 30.2 °F 19.3 °F 23.0 °F 75% 29.97 in 10.0 mi SSW 15.0 mph 23.0 mph N/A   Clear
12:35 AM 30.2 °F 18.9 °F 23.0 °F 75% 29.96 in 10.0 mi SSW 16.1 mph 24.2 mph N/A   Clear
12:55 AM 30.2 °F 19.8 °F 23.0 °F 75% 29.95 in 10.0 mi SSW 13.8 mph 21.9 mph N/A   Clear
1:15 AM 30.2 °F 19.8 °F 23.0 °F 75% 29.95 in 10.0 mi SSW 13.8 mph 21.9 mph N/A   Clear
1:35 AM 30.2 °F 20.8 °F 23.0 °F 75% 29.94 in 10.0 mi SSW 11.5 mph 17.3 mph N/A   Clear
1:55 AM 30.2 °F 21.3 °F 23.0 °F 75% 29.94 in 10.0 mi SSW 10.4 mph 16.1 mph N/A   Clear
2:15 AM 30.2 °F 21.9 °F 23.0 °F 75% 29.95 in 10.0 mi SW 9.2 mph 17.3 mph N/A   Clear
2:35 AM 28.4 °F 19.1 °F 23.0 °F 80% 29.94 in 10.0 mi SW 10.4 mph - N/A   Clear
2:55 AM 30.2 °F 21.3 °F 23.0 °F 75% 29.93 in 10.0 mi SW 10.4 mph - N/A   Clear
3:15 AM 32.0 °F 21.2 °F 23.0 °F 69% 29.93 in 10.0 mi SW 16.1 mph 21.9 mph N/A   Clear
3:35 AM 32.0 °F 22.5 °F 23.0 °F 69% 29.94 in 10.0 mi SW 12.7 mph - N/A   Clear
3:55 AM 32.0 °F 21.2 °F 23.0 °F 69% 29.94 in 10.0 mi SW 16.1 mph 21.9 mph N/A   Clear
4:15 AM 30.2 °F 18.1 °F 23.0 °F 75% 29.94 in 10.0 mi WSW 18.4 mph 26.5 mph N/A   Clear
4:35 AM 30.2 °F 19.8 °F 23.0 °F 75% 29.94 in 10.0 mi WSW 13.8 mph 24.2 mph N/A   Clear
5:45 AM 28.4 °F 16.2 °F 23.0 °F 80% 29.95 in 10.0 mi West 17.3 mph 28.8 mph N/A   Clear
6:45 AM 28.4 °F 15.8 °F 21.2 °F 74% 29.96 in 10.0 mi West 18.4 mph - N/A   Clear
7:45 AM 26.6 °F 16.2 °F 21.2 °F 80% 29.97 in 10.0 mi West 11.5 mph - N/A   Clear
8:45 AM 26.6 °F 16.2 °F 21.2 °F 80% 30.00 in 10.0 mi West 11.5 mph - N/A   Clear
9:45 AM 24.8 °F 12.9 °F 19.4 °F 80% 30.02 in 10.0 mi West 13.8 mph - N/A   Clear
10:45 AM 23.0 °F 10.6 °F 17.6 °F 80% 30.02 in 7.0 mi WNW 13.8 mph - N/A   Mostly Cloudy
11:45 AM 21.2 °F 9.5 °F 17.6 °F 86% 30.01 in 7.0 mi West 11.5 mph - N/A   Overcast
12:45 PM 19.4 °F 7.2 °F 17.6 °F 93% 30.01 in 7.0 mi WNW 11.5 mph - N/A   Overcast
1:45 PM 19.4 °F 6.6 °F 17.6 °F 93% 30.01 in 7.0 mi WNW 12.7 mph 19.6 mph N/A   Overcast
2:45 PM 19.4 °F 7.2 °F 15.8 °F 86% 30.03 in 7.0 mi WNW 11.5 mph - N/A   Overcast
3:45 PM 17.6 °F 3.2 °F 12.2 °F 79% 30.05 in 7.0 mi West 15.0 mph 18.4 mph N/A   Overcast
4:45 PM 17.6 °F 4.3 °F 10.4 °F 73% 30.05 in 7.0 mi WNW 12.7 mph - N/A   Mostly Cloudy
5:45 PM 15.8 °F 5.1 °F - N/A% 30.07 in 10.0 mi NW 8.1 mph - N/A   Scattered Clouds
6:45 PM 14.0 °F 5.1 °F 10.4 °F 86% 30.08 in 10.0 mi NW 5.8 mph - N/A   Clear
8:15 PM 12.2 °F 1.7 °F 8.6 °F 85% 30.10 in 10.0 mi NNW 6.9 mph - N/A   Clear
8:35 PM 12.2 °F 2.9 °F 8.6 °F 85% 30.10 in 10.0 mi NW 5.8 mph - N/A   Clear
8:45 PM 10.4 °F 0.8 °F 6.8 °F 85% 30.10 in 10.0 mi NW 5.8 mph - N/A   Clear
8:55 PM 12.2 °F 2.9 °F 6.8 °F 79% 30.11 in 10.0 mi NW 5.8 mph - N/A   Clear
9:15 PM 12.2 °F 1.7 °F 5.0 °F 73% 30.11 in 10.0 mi NW 6.9 mph - N/A   Clear
9:35 PM 10.4 °F -0.4 °F 5.0 °F 79% 30.11 in 10.0 mi NW 6.9 mph - N/A   Clear
9:55 PM 10.4 °F -1.5 °F 5.0 °F 79% 30.11 in 10.0 mi NW 8.1 mph - N/A   Clear
10:15 PM 10.4 °F 0.8 °F 5.0 °F 79% 30.12 in 10.0 mi NW 5.8 mph - N/A   Clear
10:35 PM 10.4 °F -0.4 °F 5.0 °F 79% 30.13 in 10.0 mi WNW 6.9 mph - N/A   Clear
11:15 PM 10.4 °F 2.2 °F 5.0 °F 79% 30.14 in 10.0 mi NW 4.6 mph - N/A   Clear
11:35 PM 8.6 °F -1.3 °F 5.0 °F 85% 30.14 in 10.0 mi NW 5.8 mph - N/A   Clear
11:55 PM 8.6 °F -1.3 °F 3.2 °F 79% 30.13 in 10.0 mi NW 5.8 mph - N/A   Clear